"Pseudo-MPEC" for ZTF03XX

Created 2019 Jun 15 1:10:09 UT using Find_Orb

Click here for an explanation of pseudo-MPECs

 
 Astrometry: 
     ZTF03XX  C2019 06 05.35072017 35 14.17 -08 03 58.2    ~65K7 20.64rUNEOCPI41
     ZTF03XX  C2019 06 05.35206917 35 14.03 -08 03 58.9    ~65K7 20.76rUNEOCPI41
     ZTF03XX  C2019 06 05.35524017 35 13.74 -08 04 01.4    ~65K7 20.58rUNEOCPI41
     ZTF03XX  C2019 06 05.36292017 35 13.08 -08 04 07.0    ~65K7 20.67rUNEOCPI41
     ZTF03XX  C2019 06 05.36472017 35 12.89 -08 04 08.5    ~65K7 20.53rUNEOCPI41
     ZTF03XX  C2019 06 05.36834017 35 12.61 -08 04 11.3    ~65K7 20.33rUNEOCPI41
     ZTF03XX  C2019 06 05.37918117 35 11.61 -08 04 19.7    ~65K7 20.58rUNEOCPI41
     ZTF03XX  C2019 06 05.38459017 35 11.16 -08 04 23.6    ~65K7 20.69rUNEOCPI41
     ZTF03XX  C2019 06 05.38505017 35 11.09 -08 04 23.7    ~65K7 20.60rUNEOCPI41
     ZTF03XX  C2019 06 05.38595017 35 11.02 -08 04 24.6    ~65K7 20.48rUNEOCPI41
     ZTF03XX  C2019 06 05.38866017 35 10.79 -08 04 26.2    ~65K7 20.59rUNEOCPI41
     ZTF03XX  C2019 06 05.39137017 35 10.54 -08 04 28.9    ~65K7 20.70rUNEOCPI41
     ZTF03XX  C2019 06 05.39406917 35 10.30 -08 04 30.9    ~65K7 20.57rUNEOCPI41
     ZTF03XX  C2019 06 05.39588017 35 10.14 -08 04 32.5    ~65K7 20.61rUNEOCPI41
     ZTF03XX  C2019 06 05?I1wL7cCj5.*jgWmat)3;c*V!DsWVyv%0M+!6OkLQTVAA3h\aqo#J04
     ZTF03XX  C2019 06 054SY5w-l-,hgp;rq,!X,ph'7VpM=AC@VPTkNa85GZ=PO4\PP:]G(dJ04
     ZTF03XX  C2019 06 058^4fVcvf9*1AEIAstrometryWl*Y/4bwp9NdPOlnA+)-a9J7%dB6J04
     ZTF03XX  C2019 06 05+g:b4xvC2^A(QIl[R8Psw3[^L+P+oruU95qM3GKy`F'7oMsG@#tqJ04
     ZTF03XX  C2019 06 056U0a`!02veKf7redacted;Sy^XSD$46sb/t\fnS$=re#sO5o;;5,J04
     ZTF03XX  C2019 06 05nijBi*V%Wr4+TTSbVWY(B]!rLJgg`s5O=;q,yMclick1Vya.SoJcJ04
     ZTF03XX |C2019 06 06L*kIgFA9qbhere[W5J`,@19?^$v^X7Ge,qO3!t\hAW\l?q#.Ac:a807
     ZTF03XX |C2019 06 06t-[2f1KDrc/ilvkgX3b5IforT.@W@0Wn8*I+(L#k5m^18%iKgXuu807
     ZTF03XX |C2019 06 06foR\eLlC@05n_,Pe/BVZen_.tLfIG,Sh*YZ'yES9!9j@#f@YF_(_807
     ZTF03XX KC2019 06 06m13K2?C?-MxB.QgK*ZD$G!jAZj'ONr:bC[gECnweWN,(3fb1E/2i711
     ZTF03XX KC2019 06 06+FZ2cc`[XY^8^[H[%d,awLJ.qYtad@uP)8k?pGx/_xm@F(tlgC-7711
     ZTF03XX KC2019 06 06+XK%siFHt)aeHW2Ffrx3lEpgKbG8`.*kgUq:x=crJ]I[JIvHiBm_711
     ZTF03XX  C2019 06 06.31443 17 33 50.86 -08 16 20.5    ~6687 19.7 GVNEOCPI52
     ZTF03XX  C2019 06 06.31644 17 33 50.79 -08 16 21.1    ~6687 19.9 GVNEOCPI52
     ZTF03XX  C2019 06 06.32003 17 33 50.54 -08 16 23.3    ~6687 20.3 GVNEOCPI52
     ZTF03XX  C2019 06 07.29828 17 32 24.89 -08 29 13.7    ~677b       VNEOCPI52
     ZTF03XX  C2019 06 07.30021 17 32 24.77 -08 29 13.5    ~677b       VNEOCPI52
     ZTF03XX  C2019 06 07.30228 17 32 24.61 -08 29 14.6    ~677b 21.2 GVNEOCPI52
     ZTF03XX  C2019 06 07.30434 17 32 24.40 -08 29 16.5    ~677b       VNEOCPI52
     ZTF03XX  C2019 06 09.29839 17 29 27.81 -08 56 00.5    ~697b       VNEOCPI52
     ZTF03XX  C2019 06 09.30106 17 29 27.58 -08 56 03.3    ~697b 21.5 GVNEOCPI52
     ZTF03XX  C2019 06 09.30298 17 29 27.40 -08 56 05.0    ~697b 20.5 GVNEOCPI52
     ZTF03XX HC2019 06 10/r1dbsHS:WJUVArNBvfEWjn3f#.cr5]VZqZ^6Zxt*!+Nos:2v#u8691
     ZTF03XX HC2019 06 10ueWXe7hAq9!0?7jq0FknGQCJ](:Xl5C#Gb;6)fexplanation)+v691
     ZTF03XX HC2019 06 10Ivf@,ff!3=x*A[fAPD3eg7gO,W3r`ocn5*!VJVCATMin]?8J_Z;c691

Station data:
(691) Steward Observatory, Kitt Peak - Spacewatch  (N31.962174 W111.600327)
   US/Arizona.  Observer J. V. Scotti. 0.9-m f/3 reflector + CCD.
(711) McDonald Observatory, Fort Davis  (N30.671481 W104.021500)  US/Texas.
   0.76-m f/3.0 reflector.
(807) Cerro Tololo Observatory, La Serena  (S30.169136 W70.805900)  Chile.
(I41) Palomar Mountain--ZTF  (N33.357340 W116.859780)  US/California. 1.2-m
   f/2.44 Oschin Schmidt + CCD.
(I52) Steward Observatory, Mt. Lemmon Station  (N32.442547 W110.788920)
   US/Arizona.  Observers T. A. Pruyne, B. M. Africano, E. J. Christensen, G.
   A. Farneth, D. C. Fuls, A. R. Gibbs, A. D. Grauer, H. Groeller, J. A.
   Johnson, R. A. Kowalski, S. M. Larson, G. J. Leonard, R. L. Seaman, F. C.
   Shelly. 1.0-m reflector + CCD.
(J04) ESA Optical Ground Station, Tenerife  (N28.300924 W16.511830)  Canary
   Islands (Spain).  Observer D. Abreu. Measurers M. Micheli, D. Koschny, E.
   Schwab, M. Busch, A. Knöfel. 1.0-m f/4.4 reflector + CCD.

Orbital elements:  ZTF03XX
   Perihelion 2018 May 10.448963 +/- 14.3 TT = 10:46:30 (JD 2458248.948963)
Epoch 2019 Jun 10.0 TT = JDT 2458644.5   Earth MOID: 0.7081   Ma: 0.0972
M 154.34828008 +/- 4.5              (J2000 ecliptic)          AutoNEOCP
n   0.39021078 +/- 0.00295          Peri.    4.21607 +/- 3.7
a   1.85468376 +/- 0.00936          Node    96.27380 +/- 0.27
e   0.0881202 +/- 0.00113           Incl.   24.07811 +/- 0.52
P   2.53/922.56d           H 18.7   G  0.15   U  8.9  
q 1.69124851 +/- 0.0079    Q 2.01811901 +/- 0.0111
From 39 observations 2019 June 5-10; mean residual 0".50
Residuals in arcseconds: 
190605 I41  .06-  .47-    190605 I41  .18-  .34-    190606 I52  .51-  .72-    
190605 I41  .36-  .15-    190605 J04  .07-  .16-    190606 I52  1.1+  .24+    
190605 I41  .47-  .23-    190605 J04  .24-  .15+    190606 I52  2.2+  .83+    
190605 I41  .11-  .03+    190605 J04  .17-  .10+    190607 I52  1.1-  2.4-    
190605 I41  .55-  .10-    190605 J04  .01-  .04-    190607 I52  .27-  .62-    
190605 I41  .08+  .13-    190605 J04  .07-  .16+    190607 I52  .15+  .08-    
190605 I41  .43-  .27-    190605 J04  .24-  .27+    190607 I52  .19-  .35-    
190605 I41  .04+  .05-    190606 807  .34+  .34-    190609 I52  .31-  .74+    
190605 I41  .39-  .20+    190606 807  .23+  .53+    190609 I52  .07-  .12+    
190605 I41  .24-  .01-    190606 807  .15-  .70+    190609 I52  .11-  .00     
190605 I41  .08-  .46+    190606 711  .10+  .29+    190610 691  .03-  .05-    
190605 I41  .21-  .18-    190606 711  .19+  .32+    190610 691  .03-  .19+    
190605 I41  .20-  .12-    190606 711  .12+  .05+    190610 691  .32+  .22-    

Ephemerides (geocentric):
Date (UTC) HH   RA              Dec         delta   r     elong  mag " sig PA
---- -- -- --  -------------   -----------  ------ ------ -----  --- ---- ---
2019 06 15 01  17 20 49.428   -10 17 27.63  1.0042 2.0064 166.8 20.7 3.00 114
2019 06 15 02  17 20 45.651   -10 18 04.38  1.0042 2.0064 166.8 20.7 3.04 114
2019 06 15 03  17 20 41.875   -10 18 41.15  1.0042 2.0065 166.8 20.7 3.09 114
2019 06 15 04  17 20 38.099   -10 19 17.93  1.0042 2.0065 166.8 20.7 3.13 114
2019 06 15 05  17 20 34.323   -10 19 54.73  1.0042 2.0065 166.8 20.7 3.18 114
2019 06 15 06  17 20 30.548   -10 20 31.55  1.0042 2.0065 166.8 20.7 3.22 113
2019 06 15 07  17 20 26.772   -10 21 08.38  1.0043 2.0065 166.8 20.7 3.26 113
2019 06 15 08  17 20 22.997   -10 21 45.23  1.0043 2.0065 166.8 20.7 3.31 113
2019 06 15 09  17 20 19.222   -10 22 22.09  1.0043 2.0065 166.7 20.7 3.36 113
2019 06 15 10  17 20 15.447   -10 22 58.97  1.0043 2.0066 166.7 20.7 3.40 113
2019 06 15 11  17 20 11.673   -10 23 35.86  1.0044 2.0066 166.7 20.7 3.45 113
2019 06 15 12  17 20 07.899   -10 24 12.77  1.0044 2.0066 166.7 20.7 3.49 113
2019 06 15 13  17 20 04.124   -10 24 49.70  1.0044 2.0066 166.7 20.7 3.54 113
2019 06 15 14  17 20 00.351   -10 25 26.64  1.0044 2.0066 166.7 20.7 3.59 113
2019 06 15 15  17 19 56.577   -10 26 03.59  1.0044 2.0066 166.7 20.7 3.64 113
2019 06 15 16  17 19 52.804   -10 26 40.57  1.0045 2.0067 166.7 20.7 3.68 113
2019 06 15 17  17 19 49.031   -10 27 17.55  1.0045 2.0067 166.7 20.7 3.73 113
2019 06 15 18  17 19 45.258   -10 27 54.55  1.0045 2.0067 166.7 20.7 3.78 113
2019 06 15 19  17 19 41.486   -10 28 31.57  1.0045 2.0067 166.7 20.7 3.83 112
2019 06 15 20  17 19 37.714   -10 29 08.60  1.0046 2.0067 166.7 20.7 3.88 112
2019 06 15 21  17 19 33.942   -10 29 45.65  1.0046 2.0067 166.7 20.7 3.93 112
2019 06 15 22  17 19 30.171   -10 30 22.71  1.0046 2.0068 166.7 20.7 3.98 112
2019 06 15 23  17 19 26.400   -10 30 59.78  1.0046 2.0068 166.7 20.7 4.03 112
2019 06 16 00  17 19 22.629   -10 31 36.87  1.0047 2.0068 166.7 20.7 4.08 112
2019 06 16 01  17 19 18.858   -10 32 13.98  1.0047 2.0068 166.7 20.7 4.13 112
2019 06 16 02  17 19 15.088   -10 32 51.10  1.0047 2.0068 166.6 20.7 4.18 112
2019 06 16 03  17 19 11.319   -10 33 28.23  1.0048 2.0068 166.6 20.7 4.24 112
2019 06 16 04  17 19 07.550   -10 34 05.38  1.0048 2.0068 166.6 20.7 4.29 112
2019 06 16 05  17 19 03.781   -10 34 42.55  1.0048 2.0069 166.6 20.7 4.34 112
2019 06 16 06  17 19 00.012   -10 35 19.73  1.0049 2.0069 166.6 20.7 4.39 112
2019 06 16 07  17 18 56.244   -10 35 56.92  1.0049 2.0069 166.6 20.7 4.45 112
2019 06 16 08  17 18 52.476   -10 36 34.13  1.0049 2.0069 166.6 20.7 4.50 111
2019 06 16 09  17 18 48.709   -10 37 11.35  1.0049 2.0069 166.6 20.7 4.56 111
2019 06 16 10  17 18 44.942   -10 37 48.59  1.0050 2.0069 166.6 20.7 4.61 111
2019 06 16 11  17 18 41.176   -10 38 25.84  1.0050 2.0070 166.6 20.7 4.67 111
2019 06 16 12  17 18 37.410   -10 39 03.10  1.0050 2.0070 166.5 20.7 4.72 111
2019 06 16 13  17 18 33.644   -10 39 40.38  1.0051 2.0070 166.5 20.7 4.78 111
2019 06 16 14  17 18 29.879   -10 40 17.67  1.0051 2.0070 166.5 20.7 4.83 111
2019 06 16 15  17 18 26.115   -10 40 54.98  1.0051 2.0070 166.5 20.7 4.89 111
2019 06 16 16  17 18 22.351   -10 41 32.30  1.0052 2.0070 166.5 20.7 4.95 111
2019 06 16 17  17 18 18.587   -10 42 09.64  1.0052 2.0070 166.5 20.7 5.00 111
2019 06 16 18  17 18 14.824   -10 42 46.99  1.0053 2.0071 166.5 20.7 5.06 111
2019 06 16 19  17 18 11.061   -10 43 24.35  1.0053 2.0071 166.5 20.7 5.12 111
2019 06 16 20  17 18 07.299   -10 44 01.73  1.0053 2.0071 166.5 20.7 5.18 111
2019 06 16 21  17 18 03.538   -10 44 39.12  1.0054 2.0071 166.4 20.7 5.24 111
2019 06 16 22  17 17 59.776   -10 45 16.52  1.0054 2.0071 166.4 20.7 5.30 110
2019 06 16 23  17 17 56.016   -10 45 53.94  1.0054 2.0071 166.4 20.7 5.36 110
2019 06 17 00  17 17 52.256   -10 46 31.37  1.0055 2.0072 166.4 20.7 5.42 110